Retour au catalogue

STARLINK-3536

ActifCommunicationsVLEO
NORAD 51888·PAYLOAD·🇺🇸 United States

Lancé Mar 3, 2022 depuis Cape Canaveral Space Force Station

Loading…

Prochains Passages (prochaines 24 heures)

TLE

FraisSource: CelesTrak SupGP

Époque: Sep 14, 2026, 22:14 UTC

1 51888C 22022AN  26257.92687500  .00005356  00000+0  16251-3 0  2570
2 51888  53.1570 215.9545 0001443  95.9395 354.4453 15.33549429    10

Suivez STARLINK-3536 en temps réel avec AllMySat

Download on the App Store